Lapse_Rate
5.4 5.1 4.7 4.0 2.6 1.7 1.0 0.5 -0.7 -1.4 -1.6 -1.8 -1.9 -2.3 -2.9 -3.7 -4.2 4.0 6.1 6.2 4.7 0.5 -0.8 8.4 7.3 9.0 8.9 8.2 8.4 8.2 6.5 6.5 6.5 6.5 6.5 7.0 6.6 7.6 8.1 7.6 7.8 7.9 7.8 7.1 7.1
5.5 5.5 4.9 4.3 4.0 3.0 1.4 0.9 0.2 -1.3 -1.5 -1.9 -2.1 -2.2 -2.8 -3.6 0.0 3.7 2.5 0.3 1.4 -0.1 6.5 8.6 8.2 8.5 7.8 7.7 7.7 6.7 6.5 6.5 6.5 6.5 6.5 6.9 6.9 7.1 7.0 7.1 7.4 7.2 7.6 7.5 7.0
5.1 4.9 5.1 4.8 4.4 3.6 2.8 1.6 0.5 -0.6 -1.2 -1.6 -2.1 -2.3 -2.9 -3.3 5.1 8.2 -1.2 -0.1 1.1 0.9 6.3 9.1 8.8 8.2 7.2 7.6 7.2 6.8 6.5 6.5 6.7 7.1 7.2 6.9 7.0 7.5 6.9 6.5 7.4 6.9 7.4 7.8 8.3
5.2 4.9 4.8 4.9 4.8 4.3 3.4 1.7 0.6 -0.1 -0.6 -1.2 -1.9 -2.5 -2.8 1.7 6.5 6.7 -0.3 -0.7 -1.2 4.1 6.6 8.5 8.3 7.3 6.6 6.5 7.3 6.5 6.8 6.8 6.9 7.3 7.1 6.6 7.4 7.1 7.3 7.3 8.1 8.1 8.3 8.3 8.2
5.2 5.1 4.9 4.7 5.0 4.3 3.6 2.5 1.1 0.5 -0.6 -0.8 -1.4 -2.1 1.3 8.0 7.9 4.9 -0.8 -0.9 2.7 5.4 8.2 8.2 7.6 7.3 6.5 6.7 6.9 6.5 6.5 7.0 7.2 7.3 7.3 7.4 7.0 6.9 7.1 7.8 8.2 8.3 8.3 8.1 8.1
5.3 5.0 4.9 4.6 4.6 4.7 3.9 2.9 1.5 0.5 -0.6 -0.5 -0.6 -1.7 4.4 6.9 9.7 9.6 9.0 6.5 9.0 8.3 8.7 8.5 7.9 8.0 7.1 6.8 6.6 6.9 6.8 6.8 7.1 7.1 7.3 6.8 6.9 7.2 7.2 7.9 7.9 7.9 7.9 7.6 7.8
5.2 5.1 4.6 4.6 4.4 4.4 4.1 2.8 1.5 0.6 -0.5 -0.2 -0.2 2.6 7.5 6.9 9.7 9.6 9.6 9.3 9.5 9.2 8.4 8.8 8.7 7.8 7.5 6.5 7.4 7.0 6.5 6.5 6.6 6.9 6.6 7.2 6.5 6.5 7.4 7.8 7.5 5.7 6.0 5.0 6.1
5.4 4.9 4.6 4.3 4.2 4.0 3.9 2.9 0.8 0.2 -0.3 -0.1 0.1 4.8 7.6 8.9 9.4 8.6 9.7 9.3 9.6 9.6 9.1 9.1 8.9 8.0 7.4 7.6 6.9 6.5 6.5 6.5 6.5 6.5 6.9 6.8 6.5 6.7 7.5 7.3 7.1 7.0 5.5 5.2 4.3
5.3 5.3 4.8 4.2 4.3 3.8 3.6 2.8 0.7 0.1 0.4 0.6 2.6 6.5 7.3 6.3 8.2 8.2 9.5 8.8 9.1 9.2 9.1 9.1 8.6 7.5 7.3 6.5 6.5 6.5 6.5 6.5 6.5 6.6 6.5 6.5 6.5 6.8 7.5 7.3 7.1 7.3 6.2 5.2 4.4
5.6 5.3 5.2 4.6 4.2 3.8 3.7 2.7 2.4 0.8 2.7 5.7 6.6 7.8 8.2 7.8 8.8 9.1 9.5 9.2 8.4 8.3 8.0 7.8 7.4 6.5 6.5 6.5 6.5 6.5 6.5 6.5 6.5 6.5 6.5 6.5 6.5 6.5 7.2 7.2 7.1 7.2 6.9 5.9 5.3
6.0 5.5 5.1 4.8 4.1 3.9 4.5 6.3 8.3 7.2 8.3 7.6 7.6 7.6 8.0 8.9 9.2 8.7 9.2 8.7 8.4 7.7 6.5 7.0 6.5 6.5 6.5 6.5 6.5 6.5 6.5 6.5 6.5 6.5 6.5 6.5 6.5 6.5 6.9 7.0 7.0 7.1 7.1 6.7 6.1
6.4 5.6 5.1 4.5 4.1 4.2 4.3 8.5 8.5 8.9 7.0 8.4 8.3 8.3 8.7 8.9 7.5 8.3 9.1 7.4 7.1 6.5 6.6 6.5 6.5 6.5 6.5 6.5 6.5 6.5 6.5 6.5 6.5 6.5 6.5 6.5 6.5 6.5 6.7 6.9 7.1 7.2 7.2 7.4 6.9
6.3 6.0 5.1 4.2 4.0 5.2 8.7 8.9 9.9 9.6 7.0 7.4 8.2 8.0 8.1 8.6 7.4 7.5 8.3 7.6 6.5 6.5 6.5 6.5 6.5 6.5 6.5 6.5 6.5 6.5 6.5 6.5 6.5 6.5 6.5 6.5 6.5 6.5 6.6 7.0 7.2 7.5 7.6 7.7 7.4
6.5 5.9 5.3 4.1 5.6 8.3 8.3 9.9 9.8 9.6 6.5 6.5 6.8 7.7 8.3 8.3 6.8 8.6 8.5 7.7 6.6 6.5 6.5 6.5 6.6 6.5 6.5 6.5 6.5 6.5 6.5 6.5 6.5 6.5 6.5 6.5 6.5 6.5 6.5 6.5 6.7 7.1 7.4 7.7 7.9
6.6 6.3 5.4 5.0 6.5 8.3 7.8 6.5 9.8 8.8 6.5 6.5 6.8 8.9 8.2 7.2 7.2 7.3 8.6 7.7 6.5 6.5 6.5 6.5 6.5 6.5 6.5 6.5 6.5 6.5 6.5 6.5 6.5 6.5 6.5 6.5 6.5 6.5 6.5 6.5 6.5 6.8 7.3 7.6 7.5
7.0 6.5 5.8 8.5 8.0 9.2 6.4 6.1 8.9 6.5 6.5 6.5 6.8 6.6 6.5 7.0 7.0 7.5 7.4 8.0 7.6 6.5 6.5 6.5 6.9 6.5 6.5 6.5 6.5 6.5 6.5 6.5 6.5 6.5 6.5 6.5 6.5 6.5 6.5 6.5 6.5 6.9 7.3 7.6 7.6
6.8 6.7 6.3 9.2 8.8 7.9 5.9 7.1 6.5 6.5 6.5 6.5 6.5 6.5 6.5 6.5 6.5 6.5 6.5 6.5 6.5 6.5 6.5 6.5 6.5 6.5 6.6 6.5 6.5 6.5 6.5 6.5 6.5 6.5 6.5 6.5 6.5 6.5 6.5 6.5 6.7 6.9 7.3 7.7 7.1
6.9 6.5 7.8 8.9 9.6 5.4 6.6 6.6 6.5 6.5 6.5 6.5 6.5 6.5 6.5 6.5 6.5 6.5 6.5 6.5 6.5 6.5 6.5 6.5 6.5 6.5 6.5 6.5 6.5 6.5 6.5 6.5 6.5 6.5 6.5 6.5 6.5 6.5 6.5 7.1 7.3 7.5 7.6 7.7 7.9
7.3 8.4 9.0 9.6 9.5 6.1 7.1 6.5 6.5 6.5 6.5 6.5 6.5 6.5 6.5 6.5 6.5 6.5 6.5 6.5 6.5 6.5 6.5 6.5 6.5 6.5 6.5 6.5 6.5 6.5 6.5 6.5 6.5 6.5 6.5 6.5 6.5 6.5 6.5 6.5 7.0 7.2 7.5 7.5 7.8
9.4 9.1 9.0 9.7 7.0 7.3 6.6 6.5 6.5 6.5 6.5 6.5 6.5 6.5 6.5 6.5 6.5 6.5 6.5 6.5 6.5 6.5 6.5 6.5 6.5 6.5 6.5 6.6 6.5 6.5 6.5 6.5 6.5 6.5 6.5 6.5 6.5 6.5 6.5 6.5 6.5 6.8 7.1 7.5 7.8
9.1 8.0 9.0 9.7 7.5 6.9 6.5 6.5 6.5 7.3 7.1 6.5 6.5 6.5 6.5 6.5 6.5 6.5 6.5 6.5 6.5 6.5 6.5 6.5 6.5 6.5 6.5 6.5 6.5 6.5 6.5 6.5 6.5 6.5 6.5 6.5 6.5 6.5 6.5 6.5 6.5 6.8 7.2 7.5 7.7
8.7 6.5 8.9 8.4 6.8 6.8 6.5 6.5 6.8 6.7 7.3 6.5 6.5 6.5 6.5 6.5 6.5 6.5 6.5 6.5 6.8 6.5 6.5 6.5 6.5 6.5 6.5 6.5 6.5 6.5 6.5 6.5 6.5 6.5 6.5 6.5 6.5 6.5 6.5 6.7 6.9 7.0 7.5 7.7 7.9
8.0 7.9 7.9 8.1 6.5 6.5 6.6 6.5 6.8 6.5 6.5 6.5 6.5 6.5 6.5 6.5 6.5 6.5 6.5 6.6 6.7 6.5 6.5 6.5 6.5 6.5 6.5 6.5 6.5 6.5 6.5 6.5 6.5 6.5 6.5 6.5 6.5 6.5 6.7 6.8 7.1 7.0 7.4 7.7 7.9
7.7 6.5 7.6 7.2 6.2 6.6 6.5 6.5 6.5 7.3 6.5 6.8 6.5 6.5 6.5 6.5 6.5 6.5 6.5 6.5 6.6 6.6 2.5 5.8 6.5 6.5 6.5 6.5 6.5 6.5 6.5 6.5 6.5 6.5 6.5 6.5 6.5 6.5 6.5 6.5 6.9 7.2 7.5 7.7 7.9
8.2 6.8 7.3 6.5 6.6 6.5 6.6 6.5 6.5 6.5 6.9 7.0 6.5 6.5 6.5 6.5 6.5 6.5 6.5 6.5 6.5 3.8 6.3 6.5 6.5 6.5 6.5 6.5 6.5 6.5 6.5 6.5 6.5 6.5 6.5 6.5 6.5 6.5 6.5 6.5 7.0 7.4 7.6 7.7 7.8
7.2 7.1 7.5 6.8 7.0 6.5 6.5 6.5 6.5 6.5 6.5 6.5 6.5 6.5 6.5 6.5 6.5 6.5 6.5 6.5 6.5 6.5 6.5 6.5 6.5 6.5 6.5 6.5 6.5 6.5 6.5 6.5 6.5 6.5 6.5 6.5 6.5 6.5 7.1 7.3 7.2 7.3 7.5 7.5 7.7
8.9 8.1 7.5 6.8 6.5 6.5 6.5 6.5 6.5 6.5 6.8 6.9 6.6 6.5 6.5 6.5 6.6 6.4 6.0 6.2 6.5 6.5 6.5 6.5 6.5 6.5 6.5 6.5 6.5 6.5 6.5 6.5 6.5 6.5 6.5 6.5 6.5 6.7 6.5 6.9 7.1 7.3 7.6 7.6 7.8
Wind_Speed
15 17 17 17 17 18 18 20 21 21 23 24 25 26 28 28 33 19 13 4 4 15 4 9 12 14 13 15 16 12 12 15 20 11 14 11 12 18 18 20 24 15 12 25 19
20 16 18 18 17 18 19 20 21 21 23 25 25 26 27 26 21 17 3 7 8 11 8 12 12 12 12 16 14 11 12 20 15 11 12 21 19 10 9 15 19 24 23 22 19
21 23 19 18 18 18 19 20 21 21 23 25 26 27 28 26 10 2 4 8 10 12 15 15 14 14 13 15 16 12 14 17 14 13 14 18 25 23 16 17 15 21 21 19 18
20 21 23 19 19 18 19 21 22 23 23 24 26 28 31 6 4 5 2 2 11 11 14 14 16 13 13 15 15 13 19 13 14 16 22 18 14 27 25 20 19 20 19 16 15
19 21 21 26 21 20 20 20 22 24 23 25 26 24 12 7 12 8 6 5 9 9 15 14 13 13 14 16 14 14 10 14 1 19 22 24 24 19 19 17 17 16 13 11 9
19 20 22 23 27 22 22 22 23 25 23 23 24 20 5 10 7 2 7 5 8 13 14 16 12 12 13 14 13 14 9 11 3 18 15 22 13 9 10 12 14 13 12 10 10
20 20 21 24 27 25 24 26 25 26 24 23 17 6 8 18 9 12 5 9 12 14 14 12 13 7 9 10 15 14 14 13 5 20 16 23 16 11 11 10 15 19 16 18 17
20 20 22 23 25 27 27 28 31 28 25 17 11 8 8 11 11 15 13 11 14 11 13 8 6 8 13 10 14 12 12 12 15 14 18 11 9 11 11 13 15 14 13 14 14
19 20 21 23 26 28 30 32 36 28 17 12 5 8 10 2 11 16 14 14 11 9 11 1 5 11 11 12 12 12 12 18 11 11 15 7 12 13 12 13 12 11 11 10 10
18 20 21 23 24 28 31 36 37 8 9 9 9 9 9 9 10 14 16 16 11 12 11 10 7 10 12 11 11 16 18 9 14 9 17 18 17 14 13 12 11 10 9 9 9
18 19 21 22 24 27 22 10 3 5 9 9 4 9 5 8 4 8 11 15 14 13 16 15 12 15 17 19 20 21 14 10 16 11 6 18 17 13 13 11 10 10 9 9 9
16 18 21 22 26 27 15 9 7 7 11 17 24 23 21 7 7 13 12 14 17 19 17 15 17 18 18 17 19 14 13 11 15 9 4 16 15 12 11 9 10 11 10 11 10
14 16 20 22 28 16 11 14 12 11 7 12 21 23 22 18 16 13 20 18 17 19 19 20 20 21 17 20 14 13 14 12 14 11 3 17 9 12 7 7 10 10 11 11 11
12 14 17 24 12 10 9 7 7 7 5 8 9 18 22 21 14 25 20 18 14 22 22 21 21 22 11 17 11 15 13 14 7 8 9 12 2 8 8 7 8 10 11 11 10
11 12 13 11 13 6 15 25 7 4 5 8 22 9 17 21 8 18 23 18 23 21 16 20 20 20 12 16 14 13 4 8 11 12 11 19 7 9 18 12 13 12 13 12 10
9 11 10 14 8 8 22 23 6 5 11 9 9 13 19 24 25 12 21 21 19 20 19 19 18 14 19 14 13 15 8 9 11 13 12 2 8 10 12 19 18 16 14 14 10
10 9 7 14 9 19 18 8 5 10 11 16 19 15 22 21 25 24 24 24 19 18 18 20 20 17 20 15 14 14 9 8 10 8 5 8 3 4 11 15 23 22 18 14 10
11 10 11 15 13 11 5 3 10 18 23 9 18 17 20 21 22 25 23 22 23 21 16 17 16 20 15 18 11 14 15 9 7 2 9 16 6 5 18 20 21 18 17 15 14
9 9 10 11 8 6 1 9 13 17 30 21 18 15 21 22 13 25 24 24 24 24 21 16 17 19 19 12 16 15 15 16 12 12 9 9 14 15 18 19 19 18 18 16 13
7 9 12 14 18 5 5 19 17 20 20 28 17 16 19 22 19 23 21 23 24 26 23 19 11 20 18 15 20 16 11 11 6 9 9 7 8 11 16 17 18 18 15 14 13
8 5 10 16 10 3 7 16 21 30 24 18 19 17 20 20 23 20 17 17 25 25 23 21 13 13 18 13 19 10 11 7 10 6 6 11 6 11 17 17 18 16 15 14 12
8 9 8 12 7 4 13 24 28 27 24 9 7 13 14 19 23 21 24 20 20 21 24 22 8 10 20 16 15 14 15 13 7 5 5 6 4 12 20 19 17 17 15 14 13
10 11 7 9 8 13 9 25 34 32 27 9 9 10 14 15 15 18 14 21 9 21 21 17 5 10 14 12 16 12 12 13 2 5 7 8 8 14 17 17 17 15 15 14 13
7 6 10 5 2 10 16 26 36 31 31 25 18 15 16 11 11 16 17 15 10 19 8 4 8 11 10 15 13 12 17 7 7 3 1 8 22 18 19 19 16 16 15 14 13
8 7 6 4 11 15 18 22 31 28 28 18 13 18 17 11 14 14 18 12 11 5 10 7 9 13 19 15 18 17 18 9 7 3 5 17 19 19 18 18 17 16 16 15 12
5 6 5 7 10 12 19 25 31 25 23 24 19 12 15 13 11 15 15 12 15 10 14 11 11 12 7 10 19 15 11 8 5 9 17 19 19 19 18 18 18 17 16 14 12
8 4 1 6 6 6 14 26 27 27 23 26 16 11 15 5 13 15 11 6 5 12 12 13 6 8 9 6 9 7 5 5 6 2 20 16 19 20 20 19 17 17 15 14 13
Wind_Direction
347 348 348 350 348 344 343 341 338 337 334 331 329 327 325 327 319 303 255 264 181 177 249 235 224 245 240 257 258 269 278 278 292 42 17 178 136 90 81 84 59 47 99 126 138
355 342 340 342 341 341 340 336 333 334 331 328 327 325 323 329 307 277 141 136 158 171 226 230 226 234 244 247 245 234 259 267 321 24 120 68 52 121 112 83 73 80 100 122 138
352 355 335 331 335 337 333 330 329 331 327 326 324 323 320 324 290 91 130 179 181 192 239 256 246 231 244 253 248 238 258 275 322 32 7 96 60 31 97 68 103 117 125 137 155
348 346 346 328 325 328 329 329 328 325 322 323 322 323 317 276 305 83 51 275 202 217 238 255 248 261 252 265 264 255 270 281 293 52 52 56 77 60 64 85 111 120 131 144 149
344 341 341 343 324 324 324 324 322 316 320 320 320 324 331 261 261 131 137 126 164 198 216 242 240 246 254 260 265 277 276 283 17 78 82 76 67 78 73 92 114 125 127 126 123
339 340 340 339 335 317 318 318 316 312 315 314 314 320 251 264 324 118 220 182 207 199 220 244 234 242 272 293 298 291 307 261 127 113 122 96 64 98 86 111 119 114 100 72 79
340 340 337 337 339 323 316 315 310 306 309 309 305 285 260 245 296 322 251 227 232 209 228 237 252 273 255 259 262 271 276 266 205 149 125 121 58 89 121 139 101 76 72 61 58
338 339 337 335 331 333 318 311 304 301 304 298 292 254 258 272 283 240 250 239 233 233 257 301 275 274 270 283 285 268 249 262 213 201 160 191 113 131 144 109 98 94 82 74 61
335 335 336 334 333 331 319 307 296 293 276 267 243 221 265 139 229 237 244 239 215 231 234 6 263 246 249 254 262 237 242 224 148 187 140 143 127 148 141 120 107 97 90 88 86
332 334 333 331 330 326 317 303 287 291 234 229 260 262 236 234 223 226 214 228 220 216 211 216 228 232 222 246 240 242 218 236 152 140 101 91 117 145 135 129 121 110 104 104 103
326 329 331 331 325 322 326 321 285 202 232 236 216 245 325 222 131 222 210 206 229 209 215 205 224 231 230 219 246 273 301 316 113 123 174 113 133 149 139 130 131 128 126 121 120
322 326 330 328 319 314 303 280 348 345 295 270 257 257 264 280 282 216 197 198 205 216 212 233 227 241 249 249 247 254 268 258 122 147 171 131 131 145 146 159 153 146 140 138 137
316 324 328 322 312 298 259 271 304 348 265 272 232 235 231 236 245 247 186 207 209 217 214 220 234 223 238 257 242 244 249 248 262 125 206 135 136 153 157 137 139 144 144 147 148
309 321 327 324 295 327 291 5 22 334 279 260 206 231 218 218 237 236 201 202 229 221 226 233 236 267 237 240 247 243 226 250 251 179 244 159 210 158 146 163 168 159 158 158 148
294 309 319 310 302 306 348 331 311 273 256 215 201 184 186 190 206 209 226 202 224 233 227 235 238 245 232 257 228 247 289 235 238 250 234 202 221 155 175 186 187 173 174 147 152
267 293 313 290 256 306 339 322 305 217 229 225 128 183 184 199 217 228 197 207 230 242 241 248 235 227 247 234 243 235 201 250 257 259 239 257 232 177 190 203 174 171 151 150 147
256 273 275 296 285 342 336 324 203 229 221 209 171 189 198 197 206 225 189 201 209 211 236 230 239 233 236 228 225 234 225 229 228 234 353 289 249 138 195 165 163 165 153 152 163
249 268 261 259 271 28 356 238 237 219 219 228 175 192 203 195 210 216 198 209 209 217 219 219 213 222 217 231 198 221 219 231 232 303 250 227 92 72 79 106 134 148 149 151 170
240 261 250 250 221 104 332 219 216 227 206 231 182 191 205 206 200 214 212 206 208 218 221 214 222 205 220 202 217 205 230 245 253 249 264 110 97 103 109 118 130 142 160 152 159
237 253 253 238 131 133 222 231 237 262 218 226 204 198 203 201 200 203 207 212 216 207 228 245 228 224 181 203 234 239 214 241 230 274 308 111 132 134 143 139 146 153 145 153 174
233 247 242 192 129 161 228 224 238 255 287 230 221 217 227 202 200 199 214 216 210 206 220 234 256 225 176 193 216 214 248 230 249 162 186 254 83 138 146 147 151 147 147 162 159
221 222 161 141 187 199 240 227 242 265 293 274 307 274 231 217 194 220 208 215 197 213 206 226 244 235 193 184 234 215 212 238 243 278 13 319 84 114 136 148 137 141 161 145 128
217 226 152 170 226 224 260 239 242 255 274 241 255 270 268 229 203 212 226 225 212 207 199 212 203 234 196 191 213 241 233 224 333 358 257 271 136 122 127 130 131 145 131 131 123
224 220 207 188 229 267 219 241 233 241 258 279 295 288 257 246 224 195 237 213 175 214 165 180 200 249 205 194 205 220 243 226 237 241 313 102 134 142 139 131 138 130 134 134 125
213 220 235 211 218 234 263 242 228 233 230 258 260 257 265 225 228 201 220 185 173 176 160 179 220 252 253 185 198 203 224 215 242 328 29 142 142 147 141 139 135 137 137 138 138
214 215 212 261 245 256 254 239 220 227 228 231 237 233 240 232 222 199 199 177 185 181 172 193 221 248 207 272 180 186 188 180 117 88 115 124 133 136 132 130 137 142 144 135 140
221 160 241 263 258 279 259 228 229 219 222 244 240 286 229 265 332 278 148 167 163 167 176 189 208 178 182 192 120 140 133 138 122 129 134 139 137 135 138 142 145 145 143 136 123